Weather Roundup
Issued by NWS Corpus Christi, TX

Home | Current Version | Previous Version | Text Only | Print | Product List | Glossary On
Versions: 1 2 3 4 5 6 7 8 9 10 11 12 13 14 15 16 17 18 19 20 21 22 23 24 25 26 27 28 29 30 31 32 33 34 35 36 37 38 39 40 41 42 43 44 45 46 47 48 49 50
000
ASUS44 KCRP 212310
HRRCRP

SOUTH TEXAS REGIONAL WEATHER ROUNDUP
NATIONAL WEATHER SERVICE CORPUS CHRISTI TX
600 PM CDT MON MAY 21 2018


TXZ229>244-220000-
...CORPUS CHRISTI AREA OBSERVATIONS...

CITY           SKY/WX    TMP DP  RH WIND       PRES   REMARKS
CORPUS CHRISTI MOSUNNY   83  73  72 E17       29.90F
NAS CORPUS CHR PTSUNNY   84  73  69 E15       29.90F HX  90
ROCKPORT       PTSUNNY   78  72  81 SE9       29.90F
KINGSVILLE ARP FAIR      88  72  59 NE13      29.89S HX  95
KINGSVILLE NAS MOSUNNY   86  70  58 E14       29.89S HX  90
ALICE          SUNNY     87  66  49 E14       29.88F
$$

...VICTORIA AREA OBSERVATIONS...

CITY           SKY/WX    TMP DP  RH WIND       PRES   REMARKS
PORT LAVACA    LGT RAIN  73  71  93 SE5       29.92F
VICTORIA       CLOUDY    74  69  85 SE6       29.93F
BEEVILLE       FAIR      86  67  52 SE9       29.90F
PLEASANTON     SUNNY     84  66  53 SE14G20   29.92R
SAN ANTONIO    MOSUNNY   88  60  38 SE12      29.93F
$$

...LAREDO AREA OBSERVATIONS...

CITY           SKY/WX    TMP DP  RH WIND       PRES   REMARKS
LAREDO         MOSUNNY   93  64  38 SE15      29.85F HX  94
COTULLA        MOSUNNY   90  65  43 SE10      29.87F HX  92
DEL RIO        MOSUNNY   89  65  44 E15       29.87F HX  91
MCALLEN        MOSUNNY   91  68  46 SE12      29.87F HX  95
HEBBRONVILLE   PTSUNNY   88  65  46 SE12      29.89S
$$

...OTHER TEXAS OBSERVATIONS...

CITY           SKY/WX    TMP DP  RH WIND       PRES   REMARKS
BROWNSVILLE    FAIR      89  69  51 S12       29.88F HX  93
HOUSTON        TSTM      76  70  82 SW8       29.97R
COL. STATION   LGT RAIN  72  71  97 E12       29.97R
AUSTIN         PTSUNNY   83  67  58 SE12      29.95R
WACO           MOSUNNY   85  66  53 E7        29.95S
FORT WORTH     CLOUDY    85  64  49 S3        29.93F
WICHITA FALLS  SUNNY     81  63  54 E7        29.96F
LUBBOCK        MOSUNNY   80  57  45 SE20G25   30.00F
EL PASO        PTSUNNY   90  44  20 SE17G25   29.80F
$$

...MARINE OBSERVATIONS...

STATION/POSITION TIME  SKY/WX   TEMP    WIND        PRES    VSBY  WAVE   SWELL
                                AIR SEA DIR/SP/G                  HT/PER HT/PER
                 (UTC)          (F)     (DEG/KT/KT) (MB)    (MI)  (FT/S) (FT/S)
PORT ARANSAS     2300            76 80   80/ 10/ 11 1012.8F
BUOY 90 E PORT A 2250            80 80  130/  6/  8 1013.8F         3/ 7   2/ 7
BUOY 200 E PT IS 2250            81 81   90/  6/  8 1013.6F         3/ 6   2/ 6
BUOY 15 E GALVES NOT AVBL
$$




USA.gov is the U.S. government's official web portal to all federal, state and local government web resources and services.